Погода в Рубцовске

Погода в Рубцовске : погода сейчас, прогноз погоды и архив. Всё, что Вы хотите узнать о погоде в Рубцовске!

Хотите узнать прогноз погоды в Рубцовске? Тогда Вам сюда: Погода в Рубцовске

Поиск расширенной информации на нашем сайте:

Полезная информация: ульяновская фабрика межкомнатных дверей

Другие новости

Новости СМИ2

Главная страница сайта

Новости сайта

02.10.2013

Напоминаем, что на нашем новом сайте вы можете получить высокодетализированные прогнозы погоды по пунктам России, СНГ и мира (включающие важные для авиации метеовеличины, такие как направление и скорость ветра, видимость, явления погоды, количество и форма облачности, нижняя и верхняя граница облачности), а также ознакомиться с разнообразными материалами по авиационной метеорологии и подборкой полезных ссылок на эту тему.

Сайт Метеоцентр.Азия посвящён разработке технологий оптимизации авиаметеорологического обслуживания, включая проектирование и перспективное создание нескольких автоматизированных авиаметеорологических систем:
- система выпуска высокодетальных прогностических карт явлений погоды для нижнего воздушного пространства по России и ближнему зарубежью;
- система верификации прогнозов TAF (выпускаемых синоптиками официальных АМСГ РФ и ближнего зарубежья) и AUTOTAF (выпускаемых сайтом Метеоцентр.Азия) - выявление ошибок, онлайн-сопоставление с фактической погодой METAR, автоматическое внесение коррективов в прогнозы при резком отклонении фактической погоды от прогноза, подсчёт оправдываемости прогнозов по элементам и в целом;
- система обработки, анализа и отображения авиаметеорологической информации для применения провайдерами метеорологической информации.

Рекомендуем: нужен офис? купить офис в раойне 1-я Брестская улица интересные предложения

Погода в Рубцовске - сегодня

Время (UTC), дата Ветер
(°,м/с) 
Видим.   Явления Облачность Т
(°С)
Тd
(°С)
f(%) Тe
(°С)
Pmin
(гПа)
dP
(гПа)
Po
(мм)
O2
(г/м3)
Тmin Tmax R s Состояние
почвы
12 25.03.17 210 (ЮЗ) 20000 м    10/10 1000 м 
[Sc]
+1 -1.2 85 -1  1022.1  0.6  746  300    +1.9     
15 25.03.17 210 (ЮЗ) 20000 м  слаб. дождь  10/10 700 м 
[Sc]
+0.9 -0.7 89 -2  1023.3  1.2  747  300           
18 25.03.17 240 (ЮЗ) 20000 м  в посл. час дождь со снегом  10/10 630 м 
[Sc]
+0.2 -0.7 94 -2  1024.8  1.4  748  301           
21 25.03.17 280 (З) 20000 м    10/10 800 м 
[Sc]
-0.7 -3.2 83 -3  1026.7  1.7  749  303           
00 26.03.17 290 (З) 20000 м    10/10 900 м 
[Sc]
-1.6 -3.9 84 -4  1028.6  1.7  751  305  -1.6    0.0  11  неравномерный
мокрый или
старый снег
100% 
03 26.03.17 050 (СВ) 10 км    9/9 270 м 
[St]
-0.7 -3.8 79 1028.5  751  304  -1.7         
06 26.03.17 070 (В) 20000 м    10/10 480 м 
[Sc]
+0.6 -2.7 79 +1  1027  -1.3  750  302           
09 26.03.17 050 (СВ) 20000 м    10/10 330 м 
[Sc]
+1.2 -1.5 82 1023.5  -3.3  747  300           
12 26.03.17 060 (СВ) 20000 м    10/10 540 м 
[Sc]
+0.1 -1.6 88 -2  1020.9  -2.6  745  300    +1.4       
15 26.03.17 060 (СВ) 2000 м  дымка  10/10 100 м 
[St]
-0.6 -1.1 96 -4  1017.8  -3.2  743  300           
18 26.03.17 060 (СВ) 2000 м  слаб. дождь  10/10 100 м 
[Sc]
-0.5 -0.9 97 -2  1015.1  -2.6  741  299           
21 26.03.17 190 (Ю) 8-11{11}  20000 м  слаб. дождь  10/10 330 м 
[Frnb|Ns]
+2.4 +0.8 89 -1  1013.3  -1.4  740  295           
00 27.03.17 210 (ЮЗ) 7-10{12}  10 км  слаб. снег{дождь}  10/10 300 м 
[Frnb|Ns]
+0.9 -0.7 89 -3  1015.4  1.9  741  298  -0.7    неравномерный
мокрый или
старый снег
100% 
03 27.03.17 190 (Ю) 10-13{15}  4000 м  слаб. снег  10/10 330 м 
[Frnb|Ns]
+0.5 -0.8 91 -4  1017.6  2.1  743  299           
06 27.03.17 230 (ЮЗ) 11-14{15}  20000 м  в посл. час снег  10/10 480 м 
[Sc]
+0.4 -1.2 89 -5  1020.3  2.5  745  300           
09 27.03.17 230 (ЮЗ) 8-10{14}  20000 м  {снег}  10/10 700 м 
[Sc]
+0.2 -1.9 86 -4  1023.9  3.5  747  301           
12 27.03.17 190 (Ю) 6{11}  20000 м  {снег}  10/10 750 м 
[Sc]
+0.5 -1.7 85 -3  1025.7  1.8  749  301    +1  0.0     
15 27.03.17 180 (Ю) 20000 м    10/10 800 м 
[Sc]
+1.1 -1.8 81 -2  1027.7  750  301           
18 27.03.17 170 (Ю) 20000 м    10/10 800 м 
[Sc]
+1.5 -1.5 80 -2  1028.2  0.6  751  301           
21 27.03.17 170 (Ю) 20000 м    10/10 900 м 
[Sc]
+1.6 -1.2 82 -1  1027.2  -1  750  300           
00 28.03.17 170 (Ю) 20000 м    6/3 600 м верхняя 
[Sc|Ci sp]
+1.1 -1.7 82 -1  1027.2  -0.1  750  301  +0.5      неравномерный
мокрый или
старый снег
100% 
03 28.03.17 150 (ЮВ) 20000 м    5/0 верхняя 
[Ci fib]
+2.7 -1.8 72 +1  1026.8  -0.2  750  299           
06 28.03.17 160 (Ю) 20000 м    10/0 верхняя 
[Cs]
+4 -1.4 68 +3  1025.9  -0.7  749  298           
09 28.03.17 170 (Ю) 7-10{10}  20000 м    10/0 верхняя 
[Cs]
+4 -1.5 67 +1  1024.4  -1.5  748  297           
12 28.03.17 200 (Ю) 4{10}  20000 м    10/0 верхняя 
[Cs]
+1.9 -1.1 80 1024.1  -0.5  748  299    +4.7       
Время (UTC), дата Ветер
(°,м/с) 
Видим.   Явления Облачность Т
(°С)
Тd
(°С)
f(%) Тe
(°С)
Pmin
(гПа)
dP
(гПа)
Po
(мм)
O2
(г/м3)
Тmin Tmax R s Состояние
почвы

Для получения пояснительной информации подведите курсор к названию столбца.

ПОГОДА в Рубцовске - архив

Всё, что Вы хотите узнать о погоде в Рубцовске - удобно и подробно!

Выберите нужную дату (начиная с 1 января 2015* года) и нажмите кнопку "Найти".
Будут отображены архивные сводки погоды по пункту Рубцовск, начиная с указанной даты.


Отображать данные в формате CSV (для использования в таблицах Excel)


Внимание! Наш архив погоды предназначен исключительно для личного некоммерческого использования в познавательных целях. Если Вам необходимы официальные справки о состоянии погоды (для производственных, юридических, коммерческих и т.п. целей), обращайтесь в органы Росгидромета.

*Примечание: данная дата относится к архиву по метеостанциям СССР (Россия, СНГ, Балтия).
Архив по метеостанциям Зарубежной Европы и Азии (кроме Китая) хранится 10 дней, по другим регионам земного шара (Китай, Африка, Америка, Австралия, Океания) - 1 день.

Рубцовск - район местоположения метеостанции


Название, широта, долгота, высота метеостанции:
Рубцовск 51.5°ш. 81.2°д. 219 м над ур. моря [Российская Федерация]

Дополнительная информация

В oтличие oт бoльшинства пoгoдных сайтoв мы публикуем пoдрoбную метеoинфoрмацию в детальнoм прoфессиoнальнoм фoрмате.

Характеристики температуры и влажнoсти вoздуха измеряются на высoте 2 м в тени вдали oт зданий и деревьев.
Скoрoсть ветра измеряется на высoте 10 м (на урoвне рoста челoвека скoрoсть ветра ниже в 1.5-2 раза). Если метеoстанция нахoдится в гoрoде или в лесу, тo скoрoсть ветра занижена на 2-4 м/с пo сравнению с oткрытым местoм. Скoрoсть ветра над акватoриями крупных рек и oзёр, а также на вершинах хoлмoв на 2-5 м/с выше, чем в oбычных услoвиях.
Атмoсфернoе давление в разных тoчках местнoсти мoжет значительнo oтличаться oт давления на метеoстанции, в зависимoсти oт услoвий рельефа (при пoдъёме на 10 м давление пoнижается примернo на 1 мм рт.ст.).